GW0766 Weather Reports


time (UTC)temp
C
wind
direction
speed
KPH
gust
KPH
rain 1hr
cm
rain 24hr
cm
rain mn
cm
humidity
%
barometer
mb
20260507220042 17 322 1.6 12.9 0.00 0.00 0.00 88 987.1
20260507215936 14 355 0.0 0.0 0.00 0.36 0.00 82 1007.9
20260507201514 17 360 3.2 14.5 0.00 0.00 0.00 86 986.6
20260507191137 17 328 1.6 12.9 0.00 0.00 0.00 85 986.8
20260507185935 17 355 0.0 0.0 0.00 0.48 0.36 67 1008.5
20260507181019 17 302 6.4 16.1 0.00 0.00 0.00 85 986.4
20260507165932 22 355 0.0 0.0 0.00 0.53 0.36 48 1008.3
20260507161558 17 80 3.2 17.7 0.00 0.00 0.00 84 986.4
20260507151519 17 32 1.6 14.5 0.00 0.00 0.00 82 986.8
20260507145931 24 344 3.2 8.0 0.00 0.53 0.36 51 1008.6
20260507135924 25 267 1.6 6.4 0.00 0.53 0.36 51 1009.4
20260507131808 18 59 8.0 25.7 0.00 0.00 0.00 76 988.6
20260507121518 18 59 4.8 19.3 0.00 0.00 0.00 78 988.7
20260507115933 22 94 3.2 8.0 0.00 0.53 0.36 62 1010.3
20260507111115 20 45 6.4 16.1 0.00 0.00 0.00 72 989.3
20260507105929 21 239 3.2 8.0 0.00 0.53 0.36 66 1011.1
20260507091150 18 5 4.8 22.5 0.00 0.00 0.00 73 989.9
20260507085921 20 302 1.6 6.4 0.00 0.53 0.36 70 1011.3
20260507075920 18 308 0.0 3.2 0.00 0.53 0.36 75 1011.5
20260507071628 18 40 6.4 16.1 0.00 0.00 0.00 81 990.0
20260507065914 16 306 1.6 6.4 0.00 0.53 0.36 87 1011.5
20260507061054 16 355 3.2 12.9 0.00 0.00 0.00 92 990.1
20260507050114 13 239 0.0 0.0 0.00 0.61 0.36 95 1010.9
20260507041510 15 313 1.6 8.0 0.00 0.00 0.00 92 989.6
20260507035916 13 239 0.0 0.0 0.00 0.61 0.36 94 1010.9
20260507021542 15 90 1.6 4.8 0.00 0.00 0.00 91 989.2
20260507015924 13 239 0.0 0.0 0.05 0.61 0.33 94 1010.9
20260507001501 15 332 0.0 3.2 0.00 0.00 0.00 89 990.1
20260506235930 14 207 0.0 4.8 0.05 0.38 0.05 92 1010.8